Regional Weather Roundup
Issued by NWS Spokane, WA

Home | Current Version | Previous Version | Text Only | Print | Product List | Glossary On
Versions: 1 2 3 4 5 6 7 8 9 10 11 12 13 14 15 16 17 18 19 20 21 22 23 24 25 26 27 28 29 30 31 32 33 34 35 36 37 38 39 40 41 42 43 44 45 46 47 48 49 50
726
NZUS01 KOTX 202010
RWROTX

Eastern Washington/Northern Idaho Roundup
National Weather Service, Spokane WA
1200 PM PST MON FEB 20 2017

Note: "fair" indicated few or no clouds below 12,000 feet with no
significant weather and/or obstructions to visibility.

...Northeast Washington and Northern Idaho Panhandle...

CITY           SKY/WX    TMP DP  RH WIND       PRES   REMARKS
Spokane Intl   PTSUNNY   37  34  89 NE6       29.50F FOG
Spokane Downto CLOUDY    41  37  86 E3        29.52F
Coeur d Alene  LGT RAIN  37  34  89 N8        29.54F
Deer Park      CLOUDY    35  33  92 NE7       29.53F WCI  29
Sandpoint      DRIZZLE   34  34 100 NE5       29.56F WCI  30
Bonners Ferry  LGT SNOW  34  32  93 N3        29.57F

...Southeast Washington and southern Idaho Panhandle...

CITY           SKY/WX    TMP DP  RH WIND       PRES   REMARKS
Walla Walla    LGT RAIN  56  43  61 S14       29.46R
Pullman/Moscow PTSUNNY   46  41  82 SE16      29.54F
Lewiston       PTSUNNY   49  42  77 E6        29.55F
Lowell           N/A     39  36  89 CALM      29.65S
Grangeville    FAIR      48  39  71 SW21G32   29.56F

...Columbia Basin...

CITY           SKY/WX    TMP DP  RH WIND       PRES   REMARKS
Ephrata        LGT RAIN  36  31  82 N10       29.50S
Moses Lake     CLOUDY    37  35  92 N12       29.50R
Pasco          LGT RAIN  44  39  82 N9        29.50S
Richland       LGT RAIN  44  40  86 NW13      29.50S
Hermiston      CLOUDY    45  43  93 SW12      29.46R
Pendleton      PTSUNNY   61  37  41 SW31G41   29.45R

...East Slopes Cascades...

CITY           SKY/WX    TMP DP  RH WIND       PRES   REMARKS
The Dalles     CLOUDY    42  41  96 NW5       29.57R
Yakima         LGT RAIN  38  36  92 W6        29.51S FOG
Ellensburg     LGT SNOW  36  32  85 W5        29.49S FOG
Wenatchee      LGT SNOW  33  32  96 W5        29.53F FOG     WCI  29
Omak           LGT RAIN  37  33  85 N6        29.55F
Sunnyside      LGT RAIN  35  33  94 NW3       29.50F

...Southern British Columbia...

CITY           SKY/WX    TMP DP  RH WIND       PRES   REMARKS
Penticton      LGT RAIN  39  36  87 N6        29.57F
Castlegar      LGT RAIN  37  36  93 VRB2      29.58S
Cranbrook      FLURRIES  36  30  80 E9        29.56F
Osoyoos          N/A     39  36  87 N2          N/A
Creston          N/A     37  36  93 CALM        N/A

...Western Montana...

CITY           SKY/WX    TMP DP  RH WIND       PRES   REMARKS
Kalispell      LGT SNOW  35  32  88 CALM      29.58F FOG
Libby            N/A     34  34 100 CALM      29.56F
Missoula       CLOUDY    39  34  82 E12       29.59F

...Neighboring Cities...

CITY           SKY/WX    TMP DP  RH WIND       PRES   REMARKS
Seattle        LGT RAIN  44  43  96 NW13      29.53R
Portland       CLOUDY    46  41  82 SW16      29.67R
Boise          CLOUDY    54  39  57 S16G24    29.77S
Great Falls    MOSUNNY   51  23  33 SW10      29.56F
Calgary        PTSUNNY   30  28  93 E3        29.51F FOG



USA.gov is the U.S. government's official web portal to all federal, state and local government web resources and services.